View from above orbital plane
|
View from above satellite
|
Ground track
|
The orbit data is extracted from the following two-line orbital elements,
1 43803U 18099AX 21016.14415542 .00000827 00000-0 79334-4 0 9998
2 43803 97.6820 89.9160 0014869 194.5100 165.5696 14.95697738115726
Epoch (UTC): | 16 January 2021 03:27:35 |
Eccentricity: | 0.0014869 |
inclination: | 97.6820° |
perigee height: | 570 km |
apogee height: | 590 km |
right ascension of ascending node: | 89.9160° |
argument of perigee: | 194.5100° |
revolutions per day: | 14.95697738 |
mean anomaly at epoch: | 165.5696° |
orbit number at epoch: | 11572 |
The dashed part of the orbit path shows where the satellite is in the earth's shadow,
|
|